Location: Wald
(31.7579°N, 86.6655°W)
Time: 10:41:16
(UTC+00:00)

Cosmos 1842 Rocket - Pass Details

Date: 14 July 2020
Orbit: 605 x 635 km, 82.5° (Epoch: 08 August)

Event Time Altitude Azimuth Distance (km) Brightness Sun altitude
Rises 03:17:42 0° 347° (NNW) 2,862 8.0 -25.0°
Reaches altitude 10° 03:19:58 10° 342° (NNW) 1,955 7.0 -25.3°
Maximum altitude 03:24:08 50° 267° (W) 773 4.1 -25.9°
Enters shadow 03:24:16 50° 260° (W) 775 4.1 -25.9°
